Temperature
30 31 31 31 31 31 31 31 30 30 30 29 29 29 28 26 26 26 25 24 23 22 21 20 20 19 19 18 18 18 18 18 17 17 17 17 17 17 17 17 17 17 17 17
31 31 31 31 31 31 31 30 30 30 29 29 29 29 28 27 26 25 25 24 23 22 21 20 20 19 19 18 18 18 18 18 17 17 17 17 17 17 17 17 17 17 17 17
31 32 31 31 31 31 31 31 31 30 29 29 29 29 28 28 26 25 25 24 23 23 22 21 20 19 19 18 18 18 18 18 18 17 17 17 17 17 17 17 17 17 17 17
31 31 31 31 31 31 31 31 30 30 30 30 29 30 29 28 27 26 25 24 24 23 22 21 21 20 19 18 18 18 18 18 18 17 17 17 17 17 17 17 17 17 17 17
31 31 31 31 31 31 30 30 30 30 30 30 30 30 30 29 28 28 27 25 24 23 23 22 21 20 19 19 18 18 18 18 18 17 17 17 17 17 17 17 17 17 17 17
31 31 31 31 31 30 30 30 30 30 31 29 30 29 30 30 28 28 27 25 24 23 23 22 21 20 19 19 18 18 17 18 17 17 17 17 17 16 16 16 16 16 17 16
30 31 31 31 30 30 30 30 30 30 30 30 30 29 29 29 29 28 27 26 24 23 23 22 21 20 19 19 18 18 17 17 17 17 17 17 17 16 16 16 16 16 16 16
30 30 31 31 31 30 30 31 29 29 29 30 30 29 30 29 28 27 26 25 24 23 22 22 21 20 19 19 18 18 17 17 17 17 17 17 16 16 16 16 16 16 16 16
31 30 31 31 31 31 30 31 31 30 30 29 30 30 29 29 28 27 26 25 24 23 22 22 21 20 20 19 18 18 17 17 17 17 17 16 16 16 16 16 15 15 15 15
31 30 31 30 30 30 30 31 30 30 28 29 29 30 29 28 28 27 27 26 25 24 23 22 21 20 20 19 18 18 17 17 17 17 16 16 16 16 16 15 15 15 15 15
31 30 30 30 30 30 29 30 29 30 30 29 29 29 29 28 28 27 27 26 25 24 23 22 21 20 20 19 18 18 17 17 17 17 16 16 16 16 15 15 15 15 15 15
30 30 30 30 30 30 30 30 30 29 28 29 29 29 29 29 28 27 26 25 24 23 23 22 21 20 20 19 18 18 17 17 17 17 16 16 16 16 15 15 15 15 15 15
30 29 29 29 29 29 29 30 30 30 30 29 29 29 28 28 28 27 26 24 23 22 22 22 21 20 19 19 18 18 17 17 17 16 16 16 16 16 15 15 15 15 15 15
28 29 29 29 29 30 29 29 29 30 29 29 29 29 28 28 27 26 25 24 23 22 21 21 21 20 19 19 18 18 17 17 17 16 16 16 16 16 15 15 15 15 15 15
29 29 29 29 29 29 29 29 29 29 29 29 29 29 29 28 27 26 25 24 23 22 21 21 20 20 19 18 18 18 17 17 17 16 16 16 16 16 15 15 15 15 14 14
28 28 28 28 29 29 28 29 29 28 29 29 28 28 29 27 26 25 24 23 23 22 21 20 20 19 19 18 18 17 17 17 17 16 16 16 15 15 15 15 14 14 14 14
28 27 27 28 28 28 28 28 28 28 29 29 28 28 28 27 25 24 23 23 22 22 21 20 19 19 18 18 18 17 17 17 17 16 16 15 15 15 15 14 14 14 13 13
26 26 27 27 27 26 28 28 28 28 28 28 28 28 27 26 25 23 22 22 22 21 20 20 19 18 18 18 18 17 17 17 16 16 15 15 15 14 14 14 14 13 13 13
26 26 27 27 27 27 28 27 27 27 27 28 27 27 26 25 24 23 22 21 21 20 19 19 18 18 18 18 17 17 16 16 16 15 15 15 14 14 14 14 14 13 13 13
25 25 26 26 26 26 27 27 26 27 26 27 26 26 25 24 25 25 21 20 20 19 19 18 18 18 18 17 17 16 16 16 15 15 15 14 14 14 14 14 13 13 13 13
25 25 26 26 26 27 27 26 26 26 26 25 25 24 24 24 24 22 20 20 19 18 18 18 17 17 17 17 16 16 16 15 15 15 14 14 14 14 14 13 13 13 13 12
26 26 25 25 25 26 25 25 25 25 24 24 24 23 23 22 21 20 20 19 18 18 17 17 17 17 17 16 16 15 15 15 14 14 14 14 14 13 13 13 13 13 12 12
25 25 26 26 26 24 23 24 23 22 23 23 23 22 22 21 21 20 19 18 18 18 17 17 17 16 16 16 15 15 15 14 14 14 14 13 13 13 13 13 12 12 12 12
24 22 24 24 25 23 22 22 21 21 22 22 21 21 21 21 20 19 18 18 17 17 17 17 16 16 16 15 15 15 14 14 14 14 13 13 13 13 13 12 12 12 12 12
24 23 23 23 23 22 22 21 21 20 21 20 20 20 20 20 19 18 18 17 17 17 17 16 16 16 16 15 15 14 14 14 14 13 13 13 13 13 12 12 12 12 12 12
23 23 23 23 22 22 21 20 20 20 20 20 20 19 19 19 19 18 17 17 17 17 16 16 16 16 15 15 14 14 14 14 14 13 13 13 13 12 12 12 12 12 12 11
Wind_Speed
4 6 3 1 3 4 4 4 3 2 1 3 4 3 4 5 6 6 6 6 6 5 5 4 4 3 3 2 1 2 1 0 1 1 2 1 1 1 1 1 1 1 1 1
7 5 1 1 2 4 4 4 2 1 1 3 3 3 4 6 7 6 6 6 6 5 5 5 4 3 3 2 2 3 2 0 1 1 1 2 2 2 1 1 1 1 1 2
7 0 1 4 4 4 4 4 4 2 2 4 4 5 6 6 6 6 6 6 6 6 6 6 5 4 3 3 2 2 1 1 0 1 1 1 1 2 1 1 1 1 1 1
5 2 4 6 4 5 4 3 4 3 5 2 3 4 3 6 7 7 7 6 6 6 6 6 6 5 4 4 3 2 2 1 0 0 1 2 2 2 2 2 1 1 1 1
5 4 5 6 3 4 3 3 4 5 6 5 3 5 1 5 4 5 5 6 6 6 6 5 5 5 4 4 3 3 2 1 1 0 1 2 2 2 1 1 1 2 1 1
5 4 4 3 1 2 2 3 5 6 7 5 2 5 2 2 1 2 4 5 6 5 6 6 6 5 5 4 3 3 3 2 1 0 0 1 2 2 3 2 2 1 1 1
7 7 5 4 5 5 6 7 5 5 4 3 1 4 2 4 2 1 3 5 6 6 6 6 6 6 5 4 3 3 3 2 1 1 1 1 2 2 2 2 1 2 2 1
9 7 6 5 6 5 6 8 6 7 6 4 2 3 3 4 2 2 4 6 6 6 6 6 6 6 6 5 4 3 3 2 1 1 0 0 2 2 1 2 2 1 2 2
7 6 5 4 3 5 5 7 7 8 8 7 3 1 2 3 3 4 5 6 7 7 6 6 6 6 6 5 5 4 4 3 2 1 1 0 0 1 2 1 1 1 1 1
6 6 5 5 5 2 4 5 5 6 6 7 4 3 1 2 2 4 5 6 7 7 7 6 5 6 5 5 5 4 4 3 2 2 1 1 1 0 1 1 1 1 1 1
8 7 6 7 6 5 5 5 5 6 6 8 6 2 4 1 2 3 4 6 7 7 7 6 5 5 5 5 5 5 4 3 2 1 1 1 1 0 0 1 1 1 0 0
7 7 7 6 4 4 7 7 7 7 6 7 8 2 4 2 3 3 3 5 6 7 6 6 6 6 5 5 5 4 4 3 2 2 1 1 1 0 0 1 1 1 0 0
6 7 9 8 8 6 6 6 8 9 8 8 9 2 4 3 3 3 4 5 6 6 6 6 6 5 5 4 4 4 3 3 2 2 2 1 1 1 0 0 1 1 1 1
5 8 9 9 5 4 7 7 8 10 9 9 8 6 2 2 2 3 4 5 6 6 6 6 6 5 5 4 4 3 3 2 2 2 2 1 1 1 0 0 1 1 1 1
5 8 8 8 6 6 8 9 8 10 10 11 8 8 5 3 3 3 4 5 6 6 6 5 5 5 5 4 4 3 3 2 2 2 1 1 0 0 0 0 1 1 1 1
5 6 7 9 8 8 10 10 9 9 10 10 10 8 4 2 3 4 5 6 7 6 6 6 5 5 5 4 4 4 3 2 2 2 1 1 0 0 0 0 0 0 1 1
6 6 8 9 7 9 11 8 8 8 8 9 9 6 2 3 4 5 5 6 6 6 6 6 6 5 4 4 4 4 3 2 2 2 1 1 1 0 0 1 0 1 1 1
6 7 7 7 7 10 4 2 5 7 7 7 7 5 4 4 4 4 5 6 6 6 6 6 5 5 4 4 4 4 3 3 2 1 1 0 1 1 1 1 1 1 1 2
6 7 7 8 10 9 5 4 5 6 7 5 6 5 4 3 4 5 5 5 6 6 6 5 5 5 4 5 5 4 4 3 2 1 1 0 1 1 1 1 1 1 2 2
5 7 8 8 9 9 3 2 2 6 7 2 4 4 3 4 6 4 6 5 5 6 6 5 5 5 5 5 4 4 3 2 2 1 1 1 1 1 1 2 2 2 2 3
8 7 10 10 10 6 2 1 3 6 2 2 3 4 5 5 3 3 6 6 6 6 6 6 5 5 5 5 4 3 2 2 1 1 1 1 1 1 1 2 2 2 3 3
8 7 8 8 10 6 3 2 3 4 5 4 3 3 3 2 3 4 6 6 7 6 6 6 5 4 4 4 4 3 2 1 1 1 1 1 1 2 1 1 2 2 3 3
6 4 5 5 4 2 1 2 3 5 5 5 3 3 3 3 4 5 5 6 6 6 6 5 5 5 4 3 3 2 1 1 0 0 0 0 1 1 2 2 2 3 3 3
4 1 3 4 4 2 2 3 4 5 4 4 4 3 4 4 4 5 5 6 6 5 5 5 5 5 4 3 2 2 2 1 1 1 2 2 2 2 1 2 3 3 3 3
3 4 4 6 4 3 2 3 4 4 3 3 2 3 3 4 5 5 5 5 5 5 5 5 5 5 4 3 2 2 2 2 2 2 3 3 3 2 2 2 2 3 3 3
5 5 6 5 2 4 3 4 4 3 3 2 1 2 3 4 5 5 5 5 5 5 5 5 5 5 4 4 3 2 1 2 2 3 3 3 3 2 2 2 2 1 2 1
Wind_Direction
211 232 229 280 288 311 306 300 308 348 108 243 247 226 178 178 190 186 181 182 179 179 165 164 165 164 164 170 174 180 230 292 285 294 300 297 292 301 324 324 356 304 286 273
218 223 247 270 266 270 275 280 302 91 155 260 256 236 190 188 195 196 192 191 189 187 180 180 182 182 178 175 183 177 183 214 282 327 315 312 309 300 323 345 6 322 299 289
243 286 181 241 238 255 264 296 314 304 226 222 254 208 190 188 196 197 200 197 195 194 196 191 190 192 185 177 174 164 147 134 355 328 291 306 275 284 314 326 330 352 328 292
236 223 238 248 248 271 277 320 288 257 251 268 275 297 165 182 190 198 202 198 196 190 190 189 190 190 188 180 167 153 148 139 122 243 299 295 303 313 322 317 342 338 336 312
224 221 237 247 273 279 314 300 258 257 269 279 252 288 121 163 201 195 196 196 194 188 184 184 183 178 177 170 164 154 152 148 161 209 237 275 302 311 323 331 360 326 337 309
242 216 241 255 257 229 202 222 224 236 258 272 301 284 323 107 197 174 172 178 183 180 176 178 176 170 170 166 162 156 151 153 167 203 309 300 311 326 338 335 333 307 324 329
215 210 204 216 219 205 234 259 267 263 253 290 87 273 355 49 58 150 161 162 166 167 167 167 168 168 165 162 160 148 140 148 166 186 250 274 292 292 304 309 311 319 343 355
224 215 198 208 241 251 245 268 283 299 306 311 207 279 47 64 80 128 148 151 154 158 158 161 164 165 165 165 159 145 139 145 144 149 183 263 274 280 293 308 323 327 338 6
234 221 172 189 232 260 250 256 284 284 283 283 283 256 128 113 116 124 138 145 149 153 154 156 157 160 164 165 159 158 152 151 150 136 133 124 315 320 323 314 304 12 25 358
243 238 198 182 196 207 277 276 261 274 291 289 281 266 332 131 135 141 148 153 151 150 150 148 149 154 155 157 154 155 151 159 168 163 170 137 158 232 275 297 13 23 14 4
241 241 212 203 229 238 216 231 255 270 283 290 296 327 43 97 139 158 156 153 152 151 149 146 144 147 149 148 148 151 153 156 153 146 135 86 86 76 35 34 47 74 8 314
227 244 245 226 200 248 246 254 250 264 273 273 287 309 72 98 143 144 142 143 147 149 150 147 143 144 149 152 152 155 159 157 153 144 144 133 112 90 58 50 14 12 32 346
206 239 241 225 202 198 229 246 255 266 270 268 275 281 104 126 147 151 148 150 151 154 154 152 146 146 151 152 153 158 163 155 149 140 139 118 95 90 68 34 358 341 321 330
230 241 249 260 269 241 235 238 246 261 264 269 271 286 264 217 203 180 169 163 160 155 157 158 155 151 150 153 152 156 153 145 141 142 133 112 87 61 4 15 338 330 329 338
233 241 248 262 268 257 255 255 248 253 267 278 284 284 285 249 232 204 183 172 170 166 164 162 159 148 149 147 147 146 138 142 143 150 145 120 98 75 43 33 15 9 352 348
231 245 242 247 245 251 256 253 249 251 259 266 274 281 289 246 211 202 194 183 181 178 174 168 163 156 153 150 149 148 149 145 150 158 155 129 117 127 131 262 287 352 346 342
218 231 244 251 238 252 248 245 249 249 253 263 271 282 251 233 218 210 199 191 184 177 174 171 167 164 159 156 152 151 145 140 137 147 151 149 188 190 233 262 256 284 297 316
225 230 240 252 242 248 252 244 255 256 261 274 280 275 256 250 230 208 198 192 184 175 170 164 164 161 159 150 143 138 132 129 127 126 142 164 237 249 253 250 271 292 305 314
223 222 240 246 246 248 229 217 237 250 260 272 276 274 255 225 213 199 185 183 178 170 161 160 162 155 142 134 129 130 129 120 114 91 51 329 277 286 287 280 286 290 297 300
198 220 236 241 255 258 239 156 245 253 249 261 278 264 228 209 236 196 156 162 158 154 152 152 151 142 131 127 130 136 129 110 78 53 34 22 359 314 304 302 298 296 288 289
199 213 231 242 250 251 64 117 217 244 292 356 283 251 223 228 291 115 147 157 153 150 149 147 145 140 134 131 132 135 122 100 66 48 35 23 356 314 303 315 309 301 300 305
223 223 227 239 249 248 73 189 243 324 338 318 286 246 230 215 134 143 150 152 150 151 150 149 146 136 135 140 142 137 118 84 68 51 25 351 307 303 358 332 307 299 294 284
234 259 254 248 263 2 318 294 324 320 308 305 286 248 216 191 168 157 157 157 155 155 155 154 149 140 139 147 154 157 143 127 115 298 300 295 300 301 305 293 285 279 279 291
201 230 251 253 253 304 302 302 311 314 308 303 278 242 215 196 174 164 160 160 158 158 158 159 154 151 154 162 168 168 162 175 204 232 246 247 246 254 273 292 298 301 303 305
234 209 234 245 262 272 267 316 329 330 319 311 280 228 208 185 170 165 165 164 163 162 165 167 165 162 162 162 168 178 177 200 230 238 241 250 252 260 274 285 313 309 323 325
226 236 251 267 272 279 284 308 320 320 314 311 255 217 205 185 173 165 162 165 166 167 168 171 172 173 172 172 176 187 203 215 235 241 246 253 259 267 269 273 266 232 268 227
Height
1513 1509 1509 1508 1507 1507 1508 1510 1511 1509 1509 1511 1512 1513 1515 1519 1521 1523 1525 1528 1530 1532 1533 1535 1535 1535 1535 1534 1534 1534 1535 1534 1534 1534 1534 1533 1533 1532 1531 1531 1530 1530 1530 1530
1509 1508 1507 1507 1508 1508 1508 1510 1509 1509 1510 1511 1511 1512 1512 1516 1519 1521 1523 1526 1528 1530 1532 1533 1534 1534 1534 1533 1532 1532 1533 1534 1533 1533 1533 1532 1532 1531 1531 1530 1529 1529 1529 1529
1508 1506 1507 1508 1507 1509 1507 1508 1508 1510 1510 1509 1510 1510 1510 1513 1517 1520 1522 1524 1526 1528 1530 1531 1532 1533 1533 1532 1532 1532 1532 1532 1533 1533 1533 1532 1531 1530 1530 1529 1528 1528 1527 1527
1505 1505 1507 1506 1506 1506 1508 1504 1506 1508 1510 1508 1510 1513 1507 1507 1512 1516 1519 1521 1523 1526 1528 1529 1530 1531 1532 1532 1532 1532 1532 1532 1531 1532 1532 1531 1531 1530 1529 1528 1528 1527 1526 1526
1505 1505 1506 1507 1506 1506 1507 1505 1505 1505 1507 1507 1506 1511 1503 1505 1508 1510 1514 1518 1521 1523 1526 1528 1529 1530 1531 1532 1532 1532 1531 1531 1531 1531 1530 1530 1530 1529 1529 1528 1527 1526 1526 1525
1502 1504 1504 1504 1505 1506 1506 1506 1505 1504 1503 1515 1508 1512 1507 1501 1505 1507 1511 1515 1519 1522 1524 1526 1528 1529 1530 1531 1531 1531 1531 1530 1530 1530 1529 1529 1528 1528 1527 1527 1526 1526 1526 1525
1505 1502 1502 1504 1505 1506 1505 1508 1515 1516 1515 1513 1504 1510 1507 1501 1503 1506 1509 1513 1517 1520 1522 1525 1526 1528 1529 1530 1530 1531 1530 1530 1529 1529 1528 1528 1527 1527 1526 1526 1525 1525 1525 1524
1507 1507 1500 1501 1503 1504 1503 1504 1518 1527 1521 1508 1504 1508 1501 1501 1504 1507 1510 1513 1516 1519 1521 1523 1525 1526 1528 1529 1529 1530 1529 1529 1529 1528 1528 1527 1526 1527 1526 1525 1525 1524 1524 1523
1501 1504 1498 1501 1501 1501 1503 1502 1497 1505 1508 1512 1505 1501 1500 1501 1504 1507 1509 1512 1515 1518 1520 1522 1524 1525 1527 1528 1528 1528 1528 1528 1528 1527 1527 1526 1525 1525 1525 1524 1524 1523 1522 1522
1495 1504 1499 1500 1502 1503 1501 1498 1502 1506 1522 1521 1509 1504 1502 1503 1503 1505 1508 1511 1514 1517 1519 1521 1523 1525 1526 1527 1527 1528 1528 1527 1527 1527 1526 1526 1524 1524 1523 1523 1522 1521 1520 1520
1493 1502 1501 1500 1502 1501 1504 1503 1504 1503 1505 1517 1518 1509 1496 1499 1502 1504 1507 1510 1513 1516 1518 1520 1522 1524 1525 1526 1527 1527 1527 1527 1527 1526 1525 1524 1524 1523 1522 1522 1521 1520 1519 1519
1496 1496 1501 1498 1497 1497 1497 1498 1501 1510 1512 1508 1510 1508 1496 1498 1501 1505 1507 1511 1513 1516 1518 1520 1521 1523 1525 1526 1526 1526 1526 1526 1526 1525 1524 1524 1523 1522 1522 1521 1520 1519 1518 1518
1496 1499 1509 1506 1503 1500 1499 1498 1496 1496 1499 1505 1509 1505 1497 1499 1502 1505 1508 1511 1513 1516 1517 1519 1521 1522 1524 1525 1525 1525 1525 1525 1525 1524 1524 1523 1523 1522 1521 1521 1520 1519 1518 1517
1497 1496 1502 1508 1501 1495 1499 1498 1498 1497 1502 1502 1501 1499 1496 1498 1501 1504 1507 1510 1512 1515 1517 1518 1520 1521 1523 1523 1524 1524 1524 1524 1524 1524 1523 1522 1521 1521 1521 1520 1519 1518 1517 1516
1496 1497 1496 1494 1492 1493 1496 1496 1496 1498 1497 1499 1497 1496 1494 1497 1500 1504 1507 1509 1511 1513 1515 1517 1519 1520 1521 1522 1522 1522 1523 1523 1523 1522 1522 1521 1521 1520 1519 1519 1518 1517 1516 1515
1497 1498 1498 1498 1494 1494 1496 1494 1494 1496 1495 1495 1495 1495 1493 1497 1501 1504 1506 1508 1509 1512 1514 1516 1517 1518 1519 1520 1520 1521 1521 1521 1521 1521 1521 1520 1520 1519 1518 1518 1517 1516 1515 1514
1495 1499 1502 1499 1494 1497 1499 1492 1492 1493 1491 1493 1495 1493 1494 1497 1500 1503 1505 1506 1508 1510 1512 1514 1515 1516 1517 1518 1518 1519 1520 1520 1520 1520 1519 1519 1519 1518 1517 1517 1516 1515 1514 1513
1497 1499 1498 1497 1502 1512 1494 1488 1489 1491 1490 1490 1490 1492 1495 1497 1500 1502 1504 1505 1507 1509 1511 1513 1514 1515 1516 1516 1517 1517 1518 1518 1519 1519 1518 1518 1517 1517 1516 1515 1515 1514 1513 1511
1496 1498 1497 1498 1500 1497 1490 1489 1490 1492 1492 1491 1491 1492 1494 1497 1499 1501 1503 1504 1506 1508 1509 1511 1513 1514 1514 1515 1516 1516 1517 1517 1518 1517 1517 1516 1516 1515 1515 1514 1513 1512 1511 1510
1497 1496 1496 1497 1503 1503 1491 1488 1491 1492 1494 1491 1492 1493 1494 1496 1495 1495 1501 1503 1505 1507 1508 1510 1511 1512 1513 1514 1514 1515 1516 1516 1516 1516 1515 1515 1514 1514 1513 1512 1511 1511 1510 1509
1495 1497 1496 1496 1498 1489 1488 1490 1492 1498 1495 1492 1492 1493 1495 1495 1495 1498 1500 1502 1504 1506 1507 1509 1510 1511 1512 1512 1513 1514 1515 1515 1515 1515 1514 1514 1513 1512 1512 1511 1510 1509 1509 1508
1491 1491 1495 1494 1498 1495 1491 1490 1492 1493 1493 1493 1493 1494 1495 1496 1497 1498 1499 1501 1503 1505 1506 1508 1509 1510 1511 1512 1512 1513 1514 1514 1514 1513 1513 1512 1512 1512 1511 1509 1508 1508 1507 1506
1488 1488 1486 1489 1491 1492 1492 1492 1494 1494 1493 1493 1494 1494 1495 1496 1496 1498 1499 1501 1502 1504 1505 1507 1508 1508 1510 1511 1511 1512 1512 1512 1512 1512 1511 1511 1510 1510 1509 1508 1507 1506 1505 1505
1489 1492 1491 1491 1488 1492 1493 1493 1494 1493 1493 1493 1493 1494 1494 1495 1496 1497 1499 1500 1501 1503 1504 1505 1506 1507 1508 1509 1510 1510 1510 1510 1510 1510 1509 1509 1509 1508 1507 1506 1506 1505 1504 1502
1487 1491 1489 1490 1491 1492 1492 1493 1493 1493 1493 1492 1492 1493 1493 1494 1495 1496 1497 1499 1500 1501 1503 1504 1505 1506 1507 1508 1508 1508 1508 1508 1508 1508 1507 1507 1507 1506 1505 1504 1503 1502 1501 1500
1488 1489 1489 1487 1491 1491 1492 1492 1492 1492 1491 1491 1491 1491 1492 1493 1494 1495 1496 1498 1499 1500 1501 1502 1503 1504 1505 1506 1506 1506 1506 1506 1506 1505 1505 1505 1505 1504 1503 1502 1502 1500 1499 1498